Flag for Canada Weather past 2 weeks in Moncton, New Brunswick, Canada

Now
57 °F

Clear.


Feels Like: 55 °F
Forecast: 57 / 80 °F
Wind: 8 mph from Southwest

Location: Moncton

Current Time: Aug 29, 2015 at 5:26:59 AM

Latest Report: Aug 29, 2015 at 4:00 AM


Visibility: 15 mi

Pressure: 30.06 "Hg

Humidity: 88%

Dew point: 54 °F

Location of MonctonLocation

Historic Weather in Moncton — Graph

°F

Moncton temperature yesterday

Maximum temperature yesterday: 77 °F (at 3:00 PM)
Minimum temperature yesterday: 55 °F (at 6:00 AM)
Average temperature yesterday: 66 °F

Past Weeks' High & Low Weather Summary

 TemperatureHumidityPressure
High91 °F (Aug 18, 4:00 PM)100% (Aug 14, 7:00 AM)30.20 "Hg (Aug 14, 7:00 AM)
Low55 °F (Aug 28, 6:00 AM)36% (Aug 17, 4:00 PM)29.78 "Hg (Aug 27, 5:00 PM)
Average71 °F81%30.02 "Hg
* Reported Aug 14 4:00 AM — Aug 29 4:00 AM, Moncton, Weather by CustomWeather, © 2015

Note: Actual official high and low records may vary slightly from our data, if they occured in-between our weather recording intervals... More about our weather records

Advertising

Moncton weather history for previous 24 hours

 ConditionsComfort  
Time TempWeatherWind HumidityBarometerVisibility
4:00 AM
Sat, Aug 29
57 °FClear.8 mph88%30.06 "Hg15 mi
3:00 AM59 °FPassing clouds.9 mph88%30.06 "Hg15 mi
2:00 AM61 °FPassing clouds.9 mph83%30.06 "Hg15 mi
1:00 AM61 °FClear.9 mph83%30.05 "Hg15 mi
12:00 AM61 °FClear.8 mph83%30.04 "Hg15 mi
11:00 PM
Fri, Aug 28
63 °FPassing clouds.8 mph83%30.03 "Hg15 mi
10:00 PM64 °FPassing clouds.10 mph78%30.03 "Hg15 mi
9:00 PM66 °FPassing clouds.8 mph73%30.02 "Hg15 mi
8:00 PM70 °FScattered clouds.6 mph64%30.00 "Hg15 mi
7:00 PM73 °FPassing clouds.10 mph53%29.98 "Hg15 mi
6:00 PM75 °FPassing clouds.10 mph50%29.98 "Hg15 mi
5:00 PM77 °FPartly sunny.14 mph44%29.98 "Hg15 mi
4:00 PM75 °FPartly sunny.13 mph50%29.98 "Hg15 mi
3:00 PM77 °FPassing clouds.13 mph47%29.97 "Hg15 mi
2:00 PM75 °FPassing clouds.12 mph50%29.98 "Hg15 mi
1:00 PM73 °FPassing clouds.12 mph57%29.98 "Hg15 mi
12:00 PM72 °FPassing clouds.16 mph61%30.00 "Hg15 mi
11:00 AM68 °FPassing clouds.14 mph69%29.99 "Hg15 mi
10:00 AM64 °FPassing clouds.15 mph73%29.98 "Hg15 mi
9:00 AM61 °FPassing clouds.10 mph83%29.98 "Hg15 mi
8:00 AM59 °FPassing clouds.10 mph88%29.97 "Hg15 mi
7:00 AM55 °FPassing clouds.12 mph100%29.95 "Hg15 mi
6:00 AM55 °FPassing clouds.8 mph100%29.92 "Hg15 mi
5:00 AM57 °FClear.10 mph94%29.91 "Hg15 mi
Weather by CustomWeather, © 2015

See weather overviewHow to use our weather pages